EW3670 Weather Reports


time (UTC)temp
F
wind
direction
speed
knots
gust
knots
rain 1hr
in
rain 24hr
in
rain mn
in
humidity
%
barometer
mb
20260507070107 45 327 2.6 11.3 0.00 0.00 0.00 54 1006.8
20260507065553 45 292 2.6 11.3 0.00 0.00 0.00 54 1006.9
20260507065049 45 304 3.5 12.2 0.00 0.00 0.00 54 1006.9
20260507064610 46 300 4.3 12.2 0.00 0.00 0.00 54 1006.8
20260507064052 46 275 4.3 12.2 0.00 0.00 0.00 54 1006.8
20260507063550 46 300 4.3 12.2 0.00 0.00 0.00 54 1006.9
20260507063058 46 288 1.7 11.3 0.00 0.00 0.00 55 1007.0
20260507062550 46 290 1.7 13.0 0.00 0.00 0.00 54 1007.0
20260507062052 46 325 3.5 13.0 0.00 0.00 0.00 53 1007.0
20260507061558 46 294 4.3 13.0 0.00 0.00 0.00 53 1007.0
20260507061056 46 293 3.5 12.2 0.00 0.00 0.00 53 1007.0
20260507060555 47 321 4.3 12.2 0.00 0.00 0.00 54 1007.1
20260507055552 47 350 1.7 16.5 0.00 0.00 0.00 56 1007.1
20260507055052 47 311 4.3 16.5 0.00 0.00 0.00 60 1007.1
20260507054602 47 304 4.3 16.5 0.00 0.00 0.00 65 1007.2
20260507054052 47 331 3.5 10.4 0.00 0.00 0.00 67 1007.2
20260507053549 47 288 1.7 10.4 0.00 0.00 0.00 67 1007.2
20260507053052 47 261 1.7 10.4 0.00 0.00 0.00 67 1007.1
20260507052550 47 281 2.6 8.7 0.00 0.00 0.00 68 1007.1
20260507052049 48 279 2.6 8.7 0.00 0.00 0.00 69 1007.2
20260507051556 48 292 1.7 7.8 0.00 0.00 0.00 69 1007.1
20260507051056 48 285 1.7 7.0 0.00 0.00 0.00 70 1007.1
20260507050552 48 300 1.7 9.6 0.00 0.00 0.00 70 1007.0
20260507050054 48 271 1.7 9.6 0.00 0.00 0.00 70 1007.1
20260507045552 49 281 1.7 8.7 0.00 0.00 0.00 70 1007.1
20260507045052 49 296 0.9 8.7 0.00 0.00 0.00 70 1007.1
20260507044609 49 281 1.7 8.7 0.00 0.00 0.00 70 1007.2
20260507044052 49 295 1.7 7.0 0.00 0.00 0.00 70 1007.2
20260507043552 49 306 0.0 4.3 0.00 0.00 0.00 70 1007.2
20260507043104 49 296 0.9 4.3 0.00 0.00 0.00 71 1007.2
20260507042552 49 304 0.0 6.1 0.00 0.00 0.00 71 1007.3
20260507042049 49 0 0.9 6.1 0.00 0.00 0.00 72 1007.3
20260507041559 49 287 0.9 3.5 0.00 0.00 0.00 72 1007.4
20260507041049 49 289 0.0 5.2 0.00 0.00 0.00 72 1007.3
20260507040553 49 0 0.0 5.2 0.00 0.00 0.00 73 1007.3
20260507040057 49 271 0.0 1.7 0.00 0.00 0.00 73 1007.4
20260507035552 49 0 0.0 1.7 0.00 0.00 0.00 72 1007.5
20260507035048 49 271 0.0 1.7 0.00 0.00 0.00 72 1007.5
20260507034555 49 0 0.0 1.7 0.00 0.00 0.00 72 1007.5
20260507034053 49 271 0.0 0.9 0.00 0.00 0.00 72 1007.5
20260507033552 49 0 0.0 1.7 0.00 0.00 0.00 72 1007.6
20260507033101 49 0 0.0 1.7 0.00 0.00 0.00 72 1007.6
20260507032557 49 0 0.0 3.5 0.00 0.00 0.00 71 1007.6
20260507032053 50 271 0.0 3.5 0.00 0.00 0.00 71 1007.6
20260507031555 50 0 0.0 2.6 0.00 0.00 0.00 71 1007.7
20260507031055 50 0 0.0 2.6 0.00 0.00 0.00 71 1007.7
20260507030552 50 0 0.0 2.6 0.00 0.00 0.00 71 1007.8
20260507030101 50 270 0.0 2.6 0.00 0.00 0.00 70 1007.8
20260507025551 50 270 0.0 2.6 0.00 0.00 0.00 70 1007.8
20260507025054 50 0 0.0 2.6 0.00 0.00 0.00 70 1007.8
20260507024557 50 270 0.0 1.7 0.00 0.00 0.00 70 1007.7
20260507024051 50 0 0.0 2.6 0.00 0.00 0.00 69 1007.7
20260507023551 50 0 0.0 2.6 0.00 0.00 0.00 69 1007.7
20260507023109 50 0 0.0 3.5 0.00 0.00 0.00 69 1007.8
20260507022552 50 270 0.9 3.5 0.00 0.00 0.00 69 1007.7
20260507022051 50 0 0.9 3.5 0.00 0.00 0.00 68 1007.7
20260507021557 50 270 0.9 3.5 0.00 0.00 0.00 68 1007.7
20260507021051 51 0 0.0 2.6 0.00 0.00 0.00 68 1007.7
20260507020552 51 257 0.0 3.5 0.00 0.00 0.00 68 1007.7
20260507020100 51 257 0.0 3.5 0.00 0.00 0.00 68 1007.7
20260507015551 51 0 0.9 3.5 0.00 0.00 0.00 68 1007.7
20260507015051 51 0 0.9 4.3 0.00 0.00 0.00 68 1007.6
20260507014557 51 260 0.9 6.1 0.00 0.00 0.00 68 1007.7
20260507014052 51 247 1.7 7.0 0.00 0.00 0.00 68 1007.8
20260507013551 51 279 1.7 7.0 0.00 0.00 0.00 68 1007.7
20260507013053 51 281 0.9 6.1 0.00 0.00 0.00 68 1007.7
20260507012552 51 237 0.0 6.1 0.00 0.00 0.00 68 1007.7
20260507012053 51 236 1.7 6.1 0.00 0.00 0.00 68 1007.7
20260507011552 51 0 1.7 6.1 0.00 0.00 0.00 67 1007.7
20260507011051 51 265 1.7 6.1 0.00 0.00 0.00 66 1007.6
20260507010552 51 282 0.9 7.0 0.00 0.00 0.00 65 1007.7
20260507010058 51 284 1.7 7.8 0.00 0.00 0.00 65 1007.7
20260507005553 51 0 1.7 7.8 0.00 0.00 0.00 64 1007.6
20260507005053 51 234 0.9 7.8 0.00 0.00 0.00 65 1007.6
20260507004554 52 249 1.7 7.8 0.00 0.00 0.00 65 1007.6
20260507004052 51 238 0.9 7.8 0.00 0.00 0.00 65 1007.4
20260507003552 51 171 2.6 6.1 0.00 0.00 0.00 65 1007.4
20260507003111 52 0 0.9 7.0 0.00 0.00 0.00 65 1007.3
20260507002552 52 225 1.7 7.0 0.00 0.00 0.00 65 1007.3
20260507002052 52 246 1.7 6.1 0.00 0.00 0.00 65 1007.2
20260507001612 52 249 0.9 6.1 0.00 0.00 0.00 65 1007.2
20260507001051 52 236 1.7 6.1 0.00 0.00 0.00 64 1007.2
20260507000556 52 271 1.7 7.0 0.00 0.00 0.00 63 1007.1
20260507000058 52 229 2.6 8.7 0.00 0.00 0.00 63 1007.1
20260506235551 52 257 3.5 8.7 0.00 0.00 0.00 63 1007.0
20260506235051 52 229 2.6 8.7 0.00 0.00 0.00 62 1007.0
20260506234558 52 241 1.7 7.8 0.00 0.00 0.00 62 1007.0
20260506234055 52 240 1.7 7.8 0.00 0.00 0.00 61 1007.0
20260506233552 53 294 1.7 9.6 0.00 0.00 0.00 61 1006.9
20260506233102 53 219 2.6 9.6 0.00 0.00 0.00 60 1006.8
20260506232552 53 275 1.7 7.8 0.00 0.00 0.00 61 1006.7
20260506232052 53 250 3.5 9.6 0.00 0.00 0.00 60 1006.7
20260506231604 53 232 3.5 9.6 0.00 0.00 0.00 60 1006.7
20260506231052 54 229 2.6 8.7 0.00 0.00 0.00 59 1006.5
20260506230551 54 234 2.6 8.7 0.00 0.00 0.00 59 1006.5
20260506230104 54 231 1.7 7.8 0.00 0.00 0.00 58 1006.5
20260506225555 54 246 1.7 7.8 0.00 0.00 0.00 58 1006.5
20260506225052 54 258 2.6 8.7 0.00 0.00 0.00 57 1006.6
20260506224553 54 277 2.6 8.7 0.00 0.00 0.00 57 1006.6
20260506224052 55 248 1.7 7.8 0.00 0.00 0.00 57 1006.6
20260506223555 55 286 3.5 7.0 0.00 0.00 0.00 56 1006.8
20260506223054 55 290 0.9 7.0 0.00 0.00 0.00 56 1006.7
20260506222550 55 279 1.7 7.0 0.00 0.00 0.00 56 1006.7
20260506222052 55 238 2.6 7.8 0.00 0.00 0.00 55 1006.7
20260506221606 55 245 2.6 7.8 0.00 0.00 0.00 54 1006.7
20260506221051 55 266 0.9 6.1 0.00 0.00 0.00 54 1006.6
20260506220553 55 280 1.7 6.1 0.00 0.00 0.00 54 1006.5
20260506220056 55 267 1.7 6.1 0.00 0.00 0.00 54 1006.5
20260506215555 55 261 1.7 6.1 0.00 0.00 0.00 53 1006.6
20260506215056 55 250 0.9 5.2 0.00 0.00 0.00 54 1006.6
20260506214554 55 224 1.7 4.3 0.00 0.00 0.00 54 1006.6
20260506214051 55 221 0.9 4.3 0.00 0.00 0.00 54 1006.6
20260506213551 55 229 1.7 7.0 0.00 0.00 0.00 53 1006.6
20260506213055 55 239 1.7 7.0 0.00 0.00 0.00 53 1006.6
20260506212552 56 243 1.7 7.0 0.00 0.00 0.00 52 1006.5
20260506212055 56 237 1.7 7.8 0.00 0.00 0.00 52 1006.7
20260506211555 56 230 1.7 7.8 0.00 0.00 0.00 51 1006.6
20260506211053 56 249 2.6 7.8 0.00 0.00 0.00 51 1006.6
20260506210553 56 242 1.7 6.1 0.00 0.00 0.00 52 1006.6
20260506210058 56 247 1.7 6.1 0.00 0.00 0.00 52 1006.6
20260506205556 56 0 0.0 6.1 0.00 0.00 0.00 53 1006.5
20260506205051 56 238 1.7 5.2 0.00 0.00 0.00 52 1006.5
20260506204556 56 225 2.6 5.2 0.00 0.00 0.00 52 1006.5
20260506204051 56 217 0.9 4.3 0.00 0.00 0.00 52 1006.4
20260506203552 56 214 1.7 4.3 0.00 0.00 0.00 52 1006.3
20260506203105 56 223 1.7 7.0 0.00 0.00 0.00 52 1006.3
20260506202550 56 186 1.7 7.0 0.00 0.00 0.00 51 1006.5
20260506202050 57 209 2.6 7.0 0.00 0.00 0.00 50 1006.6
20260506201552 57 238 2.6 7.0 0.00 0.00 0.00 50 1006.5
20260506201052 57 224 1.7 4.3 0.00 0.00 0.00 50 1006.6
20260506200557 57 211 1.7 5.2 0.00 0.00 0.00 51 1006.7
20260506200057 57 0 1.7 5.2 0.00 0.00 0.00 50 1006.8
20260506195552 57 248 1.7 5.2 0.00 0.00 0.00 50 1006.9
20260506195053 57 223 1.7 5.2 0.00 0.00 0.00 50 1006.9
20260506194554 57 0 1.7 6.1 0.00 0.00 0.00 50 1006.9
20260506194051 57 197 1.7 6.1 0.00 0.00 0.00 49 1007.0
20260506193551 57 283 1.7 7.0 0.00 0.00 0.00 50 1007.1
20260506193104 57 258 2.6 7.0 0.00 0.00 0.00 50 1007.0
20260506192549 57 234 2.6 7.0 0.00 0.00 0.00 49 1007.1
20260506192051 57 280 0.9 7.8 0.00 0.00 0.00 50 1007.1
20260506191553 57 294 1.7 7.8 0.00 0.00 0.00 50 1007.1
20260506191052 56 261 0.0 3.5 0.00 0.00 0.00 52 1007.1
20260506190552 56 261 0.9 7.0 0.00 0.00 0.00 53 1007.2
20260506190054 55 261 0.9 7.8 0.00 0.00 0.00 56 1007.3
20260506185552 54 250 2.6 7.8 0.00 0.00 0.00 56 1007.2
20260506185049 54 231 2.6 6.1 0.00 0.00 0.00 56 1007.1
20260506184551 54 232 2.6 7.0 0.00 0.00 0.00 56 1007.3
20260506184052 54 248 1.7 9.6 0.00 0.00 0.00 57 1007.3
20260506183554 54 259 0.9 9.6 0.00 0.00 0.00 57 1007.3
20260506183105 54 277 0.9 4.3 0.00 0.00 0.00 58 1007.3
20260506182553 53 225 1.7 7.0 0.00 0.00 0.00 59 1007.3
20260506182052 53 226 2.6 7.0 0.00 0.00 0.00 59 1007.4
20260506181558 53 267 1.7 8.7 0.00 0.00 0.00 60 1007.4
20260506181052 54 236 1.7 8.7 0.00 0.00 0.00 58 1007.3
20260506180553 53 280 1.7 8.7 0.00 0.00 0.00 60 1007.4
20260506180058 53 235 2.6 6.1 0.00 0.00 0.00 60 1007.5
20260506175549 53 0 1.7 6.1 0.00 0.00 0.00 59 1007.6
20260506175054 54 254 1.7 6.1 0.00 0.00 0.00 59 1007.5
20260506174553 53 238 1.7 4.3 0.00 0.00 0.00 61 1007.6
20260506174052 53 238 1.7 5.2 0.00 0.00 0.00 61 1007.6
20260506173552 52 238 1.7 6.1 0.00 0.00 0.00 64 1007.7
20260506173059 51 233 1.7 6.1 0.00 0.00 0.00 65 1007.8
20260506172552 51 210 1.7 4.3 0.00 0.00 0.00 66 1007.6
20260506172053 51 219 2.6 6.1 0.00 0.00 0.00 66 1007.7
20260506171550 51 186 1.7 6.1 0.00 0.00 0.00 66 1007.7
20260506171052 50 236 0.9 6.1 0.00 0.00 0.00 66 1007.6
20260506170549 50 227 0.9 6.1 0.00 0.00 0.00 66 1007.6
20260506170106 50 275 0.9 5.2 0.00 0.00 0.00 64 1007.6
20260506165551 51 275 1.7 5.2 0.00 0.00 0.00 63 1007.8
20260506165052 51 275 0.9 3.5 0.00 0.00 0.00 61 1008.0
20260506164616 51 275 0.9 5.2 0.00 0.00 0.00 60 1007.9
20260506164053 51 278 0.0 5.2 0.00 0.00 0.00 62 1007.9
20260506163549 51 278 0.9 5.2 0.00 0.00 0.00 60 1008.1
20260506163101 51 269 0.9 5.2 0.00 0.00 0.00 60 1008.0
20260506162552 51 190 0.9 5.2 0.00 0.00 0.00 61 1007.9
20260506162049 51 0 0.0 3.5 0.00 0.00 0.00 60 1007.9
20260506161555 51 0 0.9 3.5 0.00 0.00 0.00 62 1008.1
20260506161058 51 265 0.9 5.2 0.00 0.00 0.00 61 1008.1
20260506160549 51 0 0.0 5.2 0.00 0.00 0.00 62 1008.2
20260506160105 51 266 1.7 3.5 0.00 0.00 0.00 62 1008.1
20260506155552 51 268 0.9 5.2 0.00 0.00 0.00 62 1008.1
20260506155053 51 268 0.9 5.2 0.00 0.00 0.00 62 1008.1
20260506154559 51 0 0.0 5.2 0.00 0.00 0.00 64 1008.2
20260506154054 50 268 1.7 5.2 0.00 0.00 0.00 64 1008.2
20260506153556 50 269 0.9 3.5 0.00 0.00 0.00 63 1008.3
20260506153058 51 269 0.0 3.5 0.00 0.00 0.00 63 1008.3
20260506152551 50 0 0.0 3.5 0.00 0.00 0.00 63 1008.2
20260506152052 50 269 0.0 5.2 0.00 0.00 0.00 63 1008.3
20260506151555 50 267 0.9 5.2 0.00 0.00 0.00 63 1008.2
20260506151049 50 0 0.0 3.5 0.00 0.00 0.00 65 1008.3
20260506150549 50 241 0.0 3.5 0.00 0.00 0.00 64 1008.5
20260506145549 49 240 0.0 3.5 0.00 0.00 0.00 65 1008.6
20260506145053 49 0 0.9 6.1 0.00 0.00 0.00 65 1008.6
20260506144555 49 239 0.9 6.1 0.00 0.00 0.00 65 1008.6
20260506144049 49 240 0.9 6.1 0.00 0.00 0.00 65 1008.5
20260506143553 49 0 1.7 4.3 0.00 0.00 0.00 65 1008.6
20260506143056 49 253 0.9 4.3 0.00 0.00 0.00 64 1008.6
20260506142553 49 254 0.0 6.1 0.00 0.00 0.00 64 1008.5
20260506142052 49 254 1.7 6.1 0.00 0.00 0.00 64 1008.5
20260506141552 49 253 0.9 6.1 0.00 0.00 0.00 64 1008.4
20260506141052 49 0 0.9 5.2 0.00 0.00 0.00 64 1008.2
20260506140550 49 259 1.7 5.2 0.00 0.00 0.00 64 1008.3
20260506140056 49 0 0.0 5.2 0.00 0.00 0.00 65 1008.3
20260506135549 49 250 0.9 5.2 0.00 0.01 0.00 64 1008.2
20260506135049 49 0 0.9 5.2 0.00 0.01 0.00 65 1008.3
20260506134552 49 0 0.0 3.5 0.00 0.01 0.00 65 1008.3
20260506134052 49 233 0.0 4.3 0.00 0.01 0.00 64 1008.2
20260506133552 49 233 1.7 4.3 0.00 0.01 0.00 64 1008.2
20260506133109 49 234 0.9 3.5 0.00 0.01 0.00 64 1008.2
20260506132549 49 0 0.9 3.5 0.00 0.01 0.00 63 1008.2
20260506132052 49 234 0.9 6.1 0.00 0.01 0.00 63 1008.2
20260506131608 49 234 1.7 6.1 0.00 0.01 0.00 62 1008.2
20260506131053 49 229 0.9 3.5 0.00 0.01 0.00 60 1008.3
20260506130553 49 0 0.0 2.6 0.00 0.01 0.00 55 1008.1
20260506130058 49 0 0.0 1.7 0.00 0.01 0.00 54 1008.1
20260506125551 49 0 0.0 1.7 0.00 0.01 0.00 53 1008.2
20260506125049 49 0 0.0 2.6 0.00 0.01 0.00 53 1008.3
20260506124552 49 0 0.0 2.6 0.00 0.01 0.00 52 1008.2
20260506124051 49 196 0.0 4.3 0.00 0.01 0.00 52 1008.1
20260506123551 49 192 0.0 4.3 0.00 0.01 0.00 52 1008.1
20260506123057 49 0 0.0 3.5 0.00 0.01 0.00 52 1008.1
20260506122550 49 0 0.9 3.5 0.00 0.01 0.00 51 1008.2
20260506122052 49 292 0.9 3.5 0.00 0.01 0.00 54 1008.3
20260506121600 49 0 0.0 0.9 0.00 0.01 0.00 55 1008.2
20260506121049 49 0 0.0 2.6 0.00 0.01 0.00 56 1008.2
20260506120553 49 0 0.0 2.6 0.00 0.01 0.00 56 1008.2
20260506120103 49 293 0.0 0.9 0.00 0.01 0.00 57 1008.2
20260506115555 48 0 0.0 0.9 0.00 0.01 0.00 57 1008.3
20260506115053 48 0 0.0 0.9 0.00 0.01 0.00 58 1008.2
20260506114600 48 293 0.0 0.9 0.00 0.01 0.00 59 1008.3
20260506114056 48 0 0.0 0.9 0.00 0.01 0.00 59 1008.3
20260506113551 48 0 0.0 0.9 0.00 0.01 0.00 59 1008.3
20260506113051 48 293 0.0 0.9 0.00 0.01 0.00 59 1008.2
20260506112553 48 0 0.0 0.9 0.00 0.01 0.00 60 1008.1
20260506112049 48 0 0.0 0.9 0.00 0.01 0.00 60 1008.0
20260506111557 48 293 0.0 1.7 0.00 0.01 0.00 60 1008.0
20260506111052 48 0 0.0 1.7 0.00 0.01 0.00 59 1008.1
20260506110552 48 0 0.0 0.9 0.00 0.01 0.00 59 1008.1
20260506110109 48 0 0.0 0.9 0.00 0.01 0.00 59 1007.9
20260506105552 48 0 0.0 0.9 0.00 0.01 0.00 59 1008.0
20260506105052 48 0 0.0 0.9 0.00 0.01 0.00 58 1008.0
20260506104608 48 0 0.0 0.9 0.00 0.01 0.00 58 1008.0
20260506104054 48 0 0.0 0.9 0.00 0.01 0.00 58 1007.9
20260506103553 48 0 0.0 0.9 0.00 0.01 0.00 58 1007.9
20260506103055 48 0 0.0 0.0 0.00 0.01 0.00 58 1008.0
20260506102556 48 0 0.0 0.0 0.00 0.01 0.00 57 1007.9
20260506102056 48 0 0.0 0.9 0.00 0.01 0.00 57 1007.9
20260506101554 48 0 0.0 0.9 0.00 0.01 0.00 57 1008.2
20260506101052 48 0 0.0 0.9 0.00 0.01 0.00 56 1008.2
20260506100552 48 0 0.0 0.9 0.00 0.01 0.00 56 1008.2
20260506095552 48 0 0.0 1.7 0.00 0.01 0.00 55 1008.4
20260506095049 48 0 0.0 1.7 0.00 0.01 0.00 55 1008.4
20260506094600 48 0 0.0 1.7 0.00 0.01 0.00 54 1008.1
20260506094053 48 0 0.0 0.9 0.00 0.01 0.00 54 1007.9
20260506093553 49 0 0.0 0.9 0.00 0.01 0.00 55 1007.8
20260506093056 49 0 0.0 0.9 0.00 0.01 0.00 54 1007.8
20260506092553 49 0 0.0 0.9 0.00 0.01 0.00 54 1008.0
20260506092053 49 0 0.0 0.9 0.00 0.01 0.00 54 1007.9
20260506091552 49 0 0.0 0.9 0.00 0.01 0.00 54 1007.9
20260506091053 49 0 0.0 0.9 0.00 0.01 0.00 54 1007.8
20260506090552 49 0 0.0 0.9 0.00 0.01 0.00 53 1007.8
20260506090053 49 0 0.0 1.7 0.00 0.01 0.00 53 1007.8
20260506085552 49 0 0.0 1.7 0.00 0.01 0.00 52 1007.8
20260506085051 49 0 0.0 1.7 0.00 0.01 0.00 53 1007.8
20260506084618 49 0 0.0 1.7 0.00 0.01 0.00 53 1007.9
20260506084052 49 0 0.0 1.7 0.00 0.01 0.00 53 1007.9
20260506083552 49 0 0.0 1.7 0.00 0.01 0.00 53 1008.1
20260506083053 49 0 0.0 1.7 0.00 0.01 0.00 53 1008.1
20260506082555 49 0 0.0 1.7 0.00 0.01 0.00 52 1008.1
20260506082051 49 0 0.0 0.9 0.00 0.01 0.00 53 1008.1
20260506081557 49 0 0.0 2.6 0.00 0.01 0.00 52 1008.0
20260506081052 49 0 0.0 2.6 0.00 0.01 0.00 52 1007.9
20260506080554 49 0 0.0 0.9 0.00 0.01 0.00 52 1007.8
20260506073054 49 0 0.0 2.6 0.00 0.01 0.00 52 1008.0
20260506072554 49 293 0.0 2.6 0.00 0.01 0.00 52 1008.1
20260506072052 50 0 0.0 3.5 0.00 0.01 0.00 52 1008.1
20260506071554 50 0 0.0 3.5 0.00 0.01 0.00 52 1008.2
20260506071051 50 0 0.0 3.5 0.00 0.01 0.00 52 1008.2
20260506070552 50 293 0.0 2.6 0.00 0.01 0.00 52 1008.0